DECAYED

IRIDIUM 33 DEB, 34106 (Decayed)

Orbit data source: Space-Track

IRIDIUM 33 DEB, 34106 was space debris in LEO originally from a launch on Sun, 14 Sep 1997 UTC launched from the Tyuratam Missile And Space Complex (TTMTR). The debris from Iridium 33, an American commercial communications satellite, has been tracked extensively since its accidental collision with the defunct Russian satellite Cosmos 2251 in 2009. This event, occurring at high speed in low Earth orbit (LEO), generated thousands of pieces of space debris, significantly increasing the risk of further collisions. The Iridium 33 debris cloud has impacted space traffic management and orbital debris mitigation strategies, making it a subject of ongoing study in space situational awareness.

Not visible in the next 10 days
Identifier
34106, 1997-051DR
Orbit
Decayed
Country
Flag of USUS
Related business
Manufacturer
Unknown
Mission
Decayed spacecraft
Bus & Motor
Unknown
Mass
Unknown
Launch date (UTC)
1997-09-14 (28 years ago)
Launch vehicle
Unknown
Launch site
Tyuratam Missile And Space Complex (TTMTR)
Object type
Payload
Rocket body
Debris
Shape & HBR
Unknown shape, 0.1 m
Radar Cross Section
Small (<0.1 m²)

Expand to show TLE details & history
Last TLE update: 10 months ago

TLE from 10 months ago
0 IRIDIUM 33 DEB
1 34106U 97051DR  25123.86671754  .12971089 -14171-5  54182-2 0  9992
2 34106  86.3019  73.2402 0013937 176.8982 183.2405 16.22881338858865
Epoch: 2025-05-03T20:48Z
TLE epoch observation values (Epoch: 2025-05-03T20:48:04.395Z)
Latitude
-0.0001°
Longitude
-100.78094°
Altitude
224.224 km
Speed
7.767 km/s
True Right ascension
04h 52m 57s
True Declination
0° 00' 00"
Sunlit
Object was in daylight at epoch
Visualization orbit readout
Latitude
Unknown
Longitude
Unknown
Altitude
Unknown
Speed
Unknown
Apparent Right ascension
Unknown
Apparent Declination
Unknown
Sunlit
N/A
Visualization observer readout
Local Sidereal Time
17:24:19
Azimuth
Unknown
Elevation
Unknown
Doppler factor
Unknown
Orbital elements
Apogee altitude
217.625 km
Perigee altitude
199.266 km
Semi-major axis
6,586.583 km
Eccentricity
0.00139
Inclination
86.3019°
RAAN
73.2402°
Arg. of periapsis
176.8982°
True anomaly
183.23149°
Mean anomaly
183.2405°
Eccentric anomaly
183.23599°
Mean motion
4.06025 °/min
Orbital period
88.66 mins
BSTAR
0.0054182
Loading maneuver chart data...
Computing Atmospheric mass density...

Documentation

Showing up to 5 results
|